sat.trackr.live / text

‹ back to catalog

STARLINK-2436

NORAD 48101 · 2021-027K

PAYLOAD ACTIVE UNKNOWN

§ Identity

Operator
Country
US
Launch date
2021-04-07
Launch site
AFETR
Launch vehicle
Mass (kg)
RCS (m²)

Purposes: comms

External: N2YO · Heavens-Above · Gunter

§ Orbital elements

Epoch: 2026-09-15T16:12:42.562368Z

Period
94.01 min
Inclination
53.1617°
Eccentricity
0.0001207
Mean motion
15.31722224 rev/d
Perigee alt
469.8 km
Apogee alt
471.5 km
Semi-major
6,848.8 km
B*
4.2044e-5
RAAN
350.9047°
Arg perigee
87.8336°
Mean anomaly
272.2804°
Rev number
30,177

§ Raw data

STARLINK-24361 48101U 21027K   26258.67549262  .00000941  00000+0  42044-4 0  99912 48101  53.1617 350.9047 0001207  87.8336 272.2804 15.31722224301774

JSON: /api/v1/satellites/48101 · /tle

For live sub-satellite position, see the globe view (requires WebGL).

§ Visibility from observer

Set your observer location to see the next 7 days of passes ≥ 10°. The values pass through the URL so the page stays shareable.

No JS? Fill the form by hand. The geolocation button needs JavaScript.